Mytilini, Greece

10:27 AM EET on November 18, 2017 (GMT +0200)
Odysseas Elytis

Weather History for LGMT - September, 2017

Change the Weather History Date:

Thursday, September 14, 2017

  Actual Average Record
Temperature  
Mean Temperature 80 °F -  
Max Temperature 91 °F 76 °F 91 °F (2008)
Min Temperature 69 °F 62 °F 60 °F (1997)
Cooling Degree Days 15    
Growing Degree Days 30 (Base 50)    
Moisture  
Dew Point 61 °F    
Average Humidity 49    
Maximum Humidity 78    
Minimum Humidity 28    
Precipitation  
Precipitation 0.00 in 0.03 in - ()
Sea Level Pressure  
Sea Level Pressure 29.90 in    
Wind  
Wind Speed 6 mph ()    
Max Wind Speed 14 mph    
Max Gust Speed -    
Visibility 8.0 miles    
Events      
Averages and records for this station are not official NWS values.
T = Trace of Precipitation, MM = Missing Value Source: Averaged Metar Reports

Daily Weather History Graph

Daily Weather History Graph

Search for Another Location

Airport or City:

Trip Planner

Search our weather history database for the weather conditions in past years. The results will help you decide how hot, cold, wet, or windy it might be!

Date:

Astronomy

Sep. 14, 2017 Rise Set
Actual Time 6:54 AM EEST 7:23 PM EEST
Civil Twilight 6:27 AM EEST 7:50 PM EEST
Nautical Twilight 5:55 AM EEST 8:21 PM EEST
Astronomical Twilight 5:23 AM EEST 8:54 PM EEST
Moon 12:34 AM EEST (9/14) 3:19 PM EEST (9/14)
Length of Visible Light 13h 23m
Length of Day
12h 29m
Last Quarter, 38% of the Moon is Illuminated
Sep 14
Last Quarter
Sep 20
New
Sep 28
First Quarter
Oct 5
Full
Oct 12
Last Quarter

Hourly Weather History & Observations

Time (EEST) Temp. Heat Index Dew Point Humidity Pressure Visibility Wind Dir Wind Speed Gust Speed Precip Events Conditions
4:50 AM 73.4 °F - 60.8 °F 65% 29.95 in - Calm Calm - N/A   Clear
5:20 AM 73.4 °F - 60.8 °F 65% 29.95 in - Calm Calm - N/A   Clear
5:50 AM 73.4 °F - 66.2 °F 78% 29.95 in - Calm Calm - N/A   Clear
6:00 AM 73 °F - 67 °F 75% 29.96 in 9 mi Calm Calm - -  
6:20 AM 73.4 °F - 66.2 °F 78% 29.95 in - Calm Calm - N/A   Clear
7:20 AM 71.6 °F - 62.6 °F 73% 29.95 in - Calm Calm - N/A   Clear
7:50 AM 73.4 °F - 59.0 °F 61% 29.95 in - Variable 3.5 mph - N/A   Clear
8:20 AM 73.4 °F - 59.0 °F 61% 29.95 in - NW 4.6 mph - N/A   Clear
8:50 AM 77.0 °F - 59.0 °F 54% 29.95 in - NW 8.1 mph - N/A   Clear
9:00 AM 78 °F - 59 °F 43% 29.96 in 6 mi NW 8.1 mph - -  
9:20 AM 78.8 °F - 59.0 °F 51% 29.95 in - NW 9.2 mph - N/A   Clear
9:50 AM 78.8 °F - 60.8 °F 54% 29.95 in - NW 8.1 mph - N/A   Clear
10:20 AM 78.8 °F - 60.8 °F 54% 29.95 in - North 8.1 mph - N/A   Clear
10:50 AM 80.6 °F 81.8 °F 62.6 °F 54% 29.95 in - NW 10.4 mph - N/A   Clear
11:20 AM 80.6 °F 81.8 °F 62.6 °F 54% 29.95 in - NW 11.5 mph - N/A   Clear
11:50 AM 82.4 °F 83.4 °F 62.6 °F 51% 29.95 in - NW 13.8 mph - N/A   Clear
12:00 PM 82 °F - 62 °F 42% 29.96 in 9 mi NW 13.8 mph - -  
12:20 PM 82.4 °F 83.4 °F 62.6 °F 51% 29.92 in - NW 9.2 mph - N/A   Clear
12:50 PM 84.2 °F 84.4 °F 60.8 °F 45% 29.92 in - NW 11.5 mph - N/A   Clear
1:20 PM 84.2 °F 84.4 °F 60.8 °F 45% 29.92 in - NW 12.7 mph - N/A   Clear
1:50 PM 89.6 °F 90.1 °F 62.6 °F 40% 29.89 in - NNW 12.7 mph - N/A   Clear
2:20 PM 89.6 °F 90.1 °F 62.6 °F 40% 29.89 in - NNW 12.7 mph - N/A   Clear
2:50 PM 89.6 °F 93.4 °F 68.0 °F 49% 29.89 in - NNW 13.8 mph - N/A   Clear
3:00 PM 90 °F - 68 °F 39% 29.88 in 6 mi NNW 13.8 mph - -  
3:20 PM 89.6 °F 93.4 °F 68.0 °F 49% 29.89 in - NNW 13.8 mph - N/A   Clear
3:50 PM 91.4 °F 95.4 °F 68.0 °F 46% 29.86 in - NNW 12.7 mph - N/A   Clear
4:20 PM 91.4 °F 95.4 °F 68.0 °F 46% 29.86 in - NNW 12.7 mph - N/A   Clear
4:50 PM 91.4 °F 93.2 °F 64.4 °F 41% 29.83 in - NNW 11.5 mph - N/A   Clear
5:20 PM 91.4 °F 93.2 °F 64.4 °F 41% 29.83 in - NNW 11.5 mph - N/A   Clear
5:50 PM 89.6 °F 89.5 °F 60.8 °F 38% 29.83 in - NW 9.2 mph - N/A   Clear
6:00 PM 90 °F - 61 °F 28% 29.84 in 9 mi NW 9.2 mph - -  
6:20 PM 87.8 °F 87.6 °F 60.8 °F 40% 29.83 in - NW 9.2 mph - N/A   Clear
6:50 PM 87.8 °F 87.1 °F 59.0 °F 38% 29.83 in - NW 6.9 mph - N/A   Clear
7:20 PM 86.0 °F 85.4 °F 59.0 °F 40% 29.83 in - NW 6.9 mph - N/A   Clear
7:50 PM 84.2 °F 83.0 °F 55.4 °F 37% 29.83 in - Variable 3.5 mph - N/A   Clear
8:20 PM 84.2 °F 83.0 °F 55.4 °F 37% 29.83 in - Variable 3.5 mph - N/A   Clear
8:50 PM 82.4 °F 81.7 °F 55.4 °F 39% 29.83 in - Variable 3.5 mph - N/A   Clear
9:00 PM 83 °F - 56 °F 29% 29.85 in 9 mi 3.5 mph - -  
9:20 PM 82.4 °F 81.7 °F 55.4 °F 39% 29.86 in - Variable 3.5 mph - N/A   Clear
9:50 PM 80.6 °F 80.5 °F 55.4 °F 42% 29.83 in - Variable 3.5 mph - N/A   Clear
10:20 PM 80.6 °F 80.5 °F 55.4 °F 42% 29.83 in - Variable 3.5 mph - N/A   Clear